Weather History for Prestwick, United Kingdom

Change the Weather History Date:

Saturday, April 26, 2014

  Actual Average Record
Temperature  
Mean Temperature 54 °F -  
Max Temperature 60 °F 56 °F 62 °F (2011)
Min Temperature 48 °F 42 °F 37 °F (2007)
Degree Days  
Heating Degree Days 11    
Growing Degree Days 4 (Base 50)    
Moisture  
Dew Point 46 °F    
Average Humidity 75    
Maximum Humidity 93    
Minimum Humidity 52    
Precipitation  
Precipitation 0.00 in - - ()
Sea Level Pressure  
Sea Level Pressure 29.57 in    
Wind  
Wind Speed 6 mph ()    
Max Wind Speed 15 mph    
Max Gust Speed 18 mph    
Visibility 6.2 miles    
Events Rain    
Averages and records for this station are not official NWS values.
T = Trace of Precipitation, MM = Missing Value Source: Averaged Metar Reports

Daily Weather History Graph

Daily Weather History Graph

Search for Another Location

Airport:

Trip Planner

Search our weather history database for the weather conditions in past years. The results will help you decide how hot, cold, wet, or windy it might be!

Date:

Astronomy

Apr. 26, 2014 Rise Set
Actual Time 5:48 AM BST 8:45 PM BST
Civil Twilight 5:05 AM BST 9:28 PM BST
Nautical Twilight 4:10 AM BST 10:24 PM BST
Astronomical Twilight 2:54 AM BST 11:42 PM BST
Moon 4:38 AM BST (4/26) 5:29 PM BST (4/26)
Length of Visible Light 16h 22m
Length of Day
14h 57m
Waning Crescent, 9% of the Moon is Illuminated
Apr 26
Waning Crescent
Apr 29
New
May 7
First Quarter
May 14
Full
May 21
Last Quarter

Hourly Weather History & Observations

Time (BST) Temp. Dew Point Humidity Pressure Visibility Wind Dir Wind Speed Gust Speed Precip Events Conditions
12:20 AM 48.2 °F 46.4 °F 93% 29.68 in 6.2 mi ENE 3.5 mph - N/A Rain Light Rain
12:50 AM 50.0 °F 46.4 °F 87% 29.65 in 6.2 mi East 3.5 mph 15.0 mph N/A Rain Light Rain
1:50 AM 50.0 °F 46.4 °F 87% 29.62 in 6.2 mi East 5.8 mph 17.3 mph N/A Rain Light Rain
3:50 AM 50.0 °F 46.4 °F 87% 29.59 in 6.2 mi East 2.3 mph - N/A Rain Light Rain
4:50 AM 50.0 °F 46.4 °F 87% 29.56 in 6.2 mi Calm Calm - N/A   Mostly Cloudy
5:50 AM 50.0 °F 46.4 °F 87% 29.56 in 6.2 mi ESE 11.5 mph - N/A   Mostly Cloudy
6:20 AM 50.0 °F 46.4 °F 87% 29.53 in 6.2 mi East 11.5 mph - N/A   Mostly Cloudy
6:50 AM 50.0 °F 46.4 °F 87% 29.53 in 6.2 mi East 3.5 mph - N/A   Mostly Cloudy
7:20 AM 50.0 °F 46.4 °F 87% 29.53 in 6.2 mi ENE 5.8 mph - N/A   Scattered Clouds
7:50 AM 50.0 °F 46.4 °F 87% 29.53 in 6.2 mi ENE 2.3 mph - N/A   Scattered Clouds
8:20 AM 51.8 °F 46.4 °F 82% 29.53 in 6.2 mi ENE 3.5 mph - N/A   Scattered Clouds
8:50 AM 51.8 °F 46.4 °F 82% 29.53 in 6.2 mi ENE 3.5 mph - N/A   Scattered Clouds
9:20 AM 53.6 °F 46.4 °F 77% 29.53 in 6.2 mi East 6.9 mph 18.4 mph N/A   Scattered Clouds
9:50 AM 53.6 °F 46.4 °F 77% 29.53 in 6.2 mi East 11.5 mph - N/A   Scattered Clouds
10:20 AM 53.6 °F 44.6 °F 72% 29.53 in 6.2 mi ESE 13.8 mph - N/A   Scattered Clouds
10:50 AM 53.6 °F 44.6 °F 72% 29.53 in 6.2 mi ESE 15.0 mph - N/A   Scattered Clouds
11:20 AM 53.6 °F 46.4 °F 77% 29.53 in 6.2 mi ESE 11.5 mph - N/A   Scattered Clouds
11:50 AM 53.6 °F 46.4 °F 77% 29.53 in 6.2 mi ESE 15.0 mph - N/A   Scattered Clouds
12:20 PM 53.6 °F 46.4 °F 77% 29.53 in 6.2 mi ESE 15.0 mph - N/A   Scattered Clouds
12:50 PM 55.4 °F 48.2 °F 77% 29.56 in 6.2 mi ESE 12.7 mph - N/A Rain Light Rain
1:20 PM 53.6 °F 48.2 °F 82% 29.56 in 6.2 mi ESE 11.5 mph - N/A Rain Light Rain
1:50 PM 55.4 °F 50.0 °F 82% 29.56 in 6.2 mi East 10.4 mph - N/A Rain Light Rain Showers
2:20 PM 55.4 °F 50.0 °F 82% 29.56 in 6.2 mi East 6.9 mph 18.4 mph N/A   Scattered Clouds
2:50 PM 57.2 °F 48.2 °F 72% 29.56 in 6.2 mi East 8.1 mph - N/A   Scattered Clouds
3:20 PM 57.2 °F 46.4 °F 67% 29.56 in 6.2 mi SE 8.1 mph - N/A   Scattered Clouds
3:50 PM 59.0 °F 44.6 °F 59% 29.56 in 6.2 mi ESE 9.2 mph - N/A   Scattered Clouds
4:20 PM 59.0 °F 44.6 °F 59% 29.56 in 6.2 mi ESE 10.4 mph - N/A   Scattered Clouds
4:50 PM 60.8 °F 44.6 °F 55% 29.56 in 6.2 mi ESE 11.5 mph - N/A   Scattered Clouds
5:20 PM 60.8 °F 44.6 °F 55% 29.56 in 6.2 mi ESE 11.5 mph - N/A   Scattered Clouds
5:50 PM 60.8 °F 42.8 °F 52% 29.56 in 6.2 mi ESE 8.1 mph - N/A   Scattered Clouds
6:20 PM 59.0 °F 44.6 °F 59% 29.56 in 6.2 mi ESE 5.8 mph - N/A   Scattered Clouds
6:50 PM 59.0 °F 44.6 °F 59% 29.56 in 6.2 mi East 5.8 mph - N/A   Scattered Clouds
7:20 PM 59.0 °F 44.6 °F 59% 29.59 in 6.2 mi East 3.5 mph - N/A   Scattered Clouds
7:50 PM 57.2 °F 44.6 °F 63% 29.59 in 6.2 mi East 12.7 mph - N/A   Scattered Clouds
8:20 PM 55.4 °F 42.8 °F 63% 29.59 in 6.2 mi East 5.8 mph - N/A   Scattered Clouds
8:50 PM 53.6 °F 42.8 °F 67% 29.62 in 6.2 mi Calm Calm - N/A   Partly Cloudy
9:20 PM 51.8 °F 42.8 °F 71% 29.62 in 6.2 mi NE 6.9 mph - N/A   Partly Cloudy
9:50 PM 51.8 °F 44.6 °F 76% 29.65 in 6.2 mi ENE 4.6 mph - N/A   Partly Cloudy
10:20 PM 50.0 °F 44.6 °F 82% 29.65 in 6.2 mi ENE 4.6 mph - N/A   Partly Cloudy
10:50 PM 50.0 °F 44.6 °F 82% 29.65 in 6.2 mi Calm Calm - N/A   Partly Cloudy
11:20 PM 50.0 °F 44.6 °F 82% 29.65 in 6.2 mi East 2.3 mph - N/A   Partly Cloudy
11:50 PM 50.0 °F 42.8 °F 76% 29.68 in 6.2 mi ENE 2.3 mph - N/A   Partly Cloudy